Погода в Хотеева

Россия / Брянская область     52°46′09″N   34°50′34″E
темп.,
°C
ветер,
м/с
пор.,
м/с
влажн.,
%
обл.,
%
осадки,
мм/ч
давл.,
гПа
погр.,
м
8 мая, сб
сб800:00+9ююв61585100 2.3 1010727
03:00+9ююв71491100 6.7 1008627
06:00+9ююв81594100 2.8 1005777
09:00+9ю71396100 5.3 1004736
12:00+10ю4997100 1.8 1003729
15:00+9зсз3594100 4.4 1003321
18:00+8зсз6995100 0.5 1003544
21:00+4сз81497100 2.8 1007856
9 мая, вс
вс900:00+4сз61397100 3.4 10101139
03:00+3сз61290100 4.2 1013865
06:00+3зсз5129166 0.0 1015538
09:00+6сз7107421 0.0 10171039
12:00+9сз8105398 0.1 10182104
15:00+9ссз795377 0.2 10211918
18:00+10ссз48585 0.0 10221775
21:00+5зсз34735 0.1 102554
10 мая, пн
пн1000:00+3сз37755 0.0 102698
03:00+2ссз35775 0.0 102869
06:00+2с34795 0.0 102969
09:00+9ссв35585 0.0 1030430
12:00+13ссв46445 0.0 10291376
15:00+14ссв46410 0.0 10281704
18:00+14св47555 0.0 1027540
21:00+7ссв47750 0.0 1029106
11 мая, вт
вт1100:00+6св39800 0.0 1028152
03:00+4ссв411800 0.0 1028202
06:00+5ссв514780 0.0 1028323
09:00+11св812635 0.0 1026595
12:00+15св710615 0.0 1025887
15:00+17всв71067100 0.0 10241212
18:00+14в5118411 0.1 1025727
21:00+10всв35947 0.1 102489
12 мая, ср
ср1200:00+11всв3795100 0.0 1023241
03:00+9в2594100 1.2 1022224
06:00+8в3696100 1.4 1022300
09:00+9всв489099 2.0 1022354
12:00+15вюв6963100 0.1 10211742
15:00+15вюв796084 0.4 10201643
18:00+15вюв477194 0.3 1019649
21:00+12вюв118398 0.6 101820